NOAA 16 DEB, 41400

Orbit data source: Space-Track

NOAA 16 DEB, 41400 is space debris in SSO originally from a launch on Thu, 21 Sep 2000 UTC launched from the Air Force Western Test Range (AFWTR). Debris objects in space refer to the collection of defunct objects orbiting the Earth. Examples of debris include non-operational satellites, rocket bodies, and fragments generated from explosions, collisions, or faulty payload assembly.

Loading next visibility...
Identifier
41400, 2000-055KD
Orbit
SSO
Country
Flag of USUS
Related business
Manufacturer
Unknown
Mission
Spacecraft
Bus & Motor
Unknown
Mass
Unknown
Launch date (UTC)
2000-09-21 (25 years ago)
Launch vehicle
Unknown
Launch site
Air Force Western Test Range (AFWTR)
Object type
Payload
Rocket body
Debris
Shape & HBR
Unknown shape, 0.1 m
Radar Cross Section
Small (<0.1 m²)

Expand to show TLE details & history
Last TLE update: 2 days ago

TLE from 2 days ago
0 NOAA 16 DEB
1 41400U 00055KD  25291.69312542  .00008714  00000-0  31762-2 0  9991
2 41400  98.7217  22.9779 0016914 239.0847 120.8674 14.33247936497892
Epoch: 2025-10-18T16:38Z
TLE epoch observation values (Epoch: 2025-10-18T16:38:06.036Z)
Latitude
-0.00004°
Longitude
106.03227°
Altitude
790.056 km
Speed
7.455 km/s
True Right ascension
01h 31m 54s
True Declination
0° 00' 00"
Sunlit
Object was in full shadow at epoch
Visualization orbit readout
Latitude
Unknown
Longitude
Unknown
Altitude
Unknown
Speed
Unknown
Apparent Right ascension
Unknown
Apparent Declination
Unknown
Sunlit
N/A
Visualization observer readout
Local Sidereal Time
15:01:42
Azimuth
Unknown
Elevation
Unknown
Doppler factor
Unknown
Orbital elements
Apogee altitude
790.14 km
Perigee altitude
765.932 km
Semi-major axis
7,156.173 km
Eccentricity
0.00169
Inclination
98.7217°
RAAN
22.9779°
Arg. of periapsis
239.0847°
True anomaly
121.03359°
Mean anomaly
120.8674°
Eccentric anomaly
120.95051°
Mean motion
3.58527 °/min
Orbital period
100.41 mins
BSTAR
0.0031762
Loading maneuver chart data...
Computing Atmospheric mass density...
Loading historical data...
Loading historical data...
Loading historical data...
Loading historical data...
Loading historical data...
Loading historical data...
Loading historical data...

Documentation

Showing up to 5 results
|